Location: ??????????
(54.7560°N, 39.1389°E)
Time: 06:05:12
(UTC+00:00)

Timation 1 Rocket - Pass Details

Date: 19 May 2025
Orbit: 895 x 909 km, 70.0° (Epoch: 15 June)

Event Time Altitude Azimuth Distance (km) Brightness Sun altitude
Exits shadow 20:04:14 15° 190° (S) 2,247 5.9 -13.5°
Maximum altitude 20:09:07 56° 116° (ESE) 1,069 4.5 -13.8°
Drops below altitude 10° 20:14:58 10° 40° (NE) 2,599 7.2 -14.0°
Sets 20:17:31 0° 37° (NE) 3,546 8.0 -14.1°
